• In Kazakhstan
  • List of Countries
  • For 7 days
  • Water Temperature
  • Satellite Maps
  • Weather Map
  • News
  • Weather Widgets
  • user-avatar
    Login

    Hourly Weather Kandi

    Today, 22 October, Sunday

    Time Temperature Precipitation Wind Pressure Humidity
    00:00 +28°C° 0 mm 1 mps 738 mmHg 34%
    01:00 +27°C° 0 mm 1 mps 738 mmHg 35%
    02:00 +27°C° 0 mm 1 mps 738 mmHg 36%
    03:00 +27°C° 0 mm 1 mps 737 mmHg 38%
    04:00 +26°C° 0 mm 1 mps 737 mmHg 39%
    05:00 +26°C° 0 mm 1 mps 738 mmHg 41%
    06:00 +26°C° 0 mm 1 mps 738 mmHg 45%
    07:00 +29°C° 0 mm 1 mps 738 mmHg 41%
    08:00 +32°C° 0 mm 1 mps 738 mmHg 36%
    09:00 +35°C° 0 mm 1 mps 739 mmHg 31%
    10:00 +39°C° 0 mm 1 mps 738 mmHg 25%
    11:00 +41°C° 0 mm 1 mps 738 mmHg 19%
    12:00 +43°C° 0 mm 1 mps 737 mmHg 13%
    13:00 +43°C° 0 mm 1 mps 736 mmHg 12%
    14:00 +43°C° 0 mm 1 mps 736 mmHg 11%
    15:00 +43°C° 0 mm 1 mps 735 mmHg 11%
    16:00 +40°C° 0 mm 1 mps 735 mmHg 13%
    17:00 +36°C° 0 mm 1 mps 735 mmHg 15%
    18:00 +31°C° 0 mm 0 mps 735 mmHg 17%
    19:00 +32°C° 0 mm 1 mps 736 mmHg 18%
    20:00 +32°C° 0 mm 1 mps 736 mmHg 19%
    21:00 +31°C° 0 mm 1 mps 737 mmHg 20%
    22:00 +30°C° 0 mm 1 mps 737 mmHg 21%
    23:00 +29°C° 0 mm 1 mps 737 mmHg 23%

    Tomorrow, 23 October, Monday

    Time Temperature Precipitation Wind Pressure Humidity
    00:00 +28°C° 0 mm 1 mps 737 mmHg 25%
    01:00 +28°C° 0 mm 1 mps 736 mmHg 27%
    02:00 +27°C° 0 mm 1 mps 736 mmHg 29%
    03:00 +27°C° 0 mm 1 mps 736 mmHg 31%
    04:00 +26°C° 0 mm 1 mps 736 mmHg 35%
    05:00 +26°C° 0 mm 1 mps 736 mmHg 39%
    06:00 +26°C° 0 mm 1 mps 737 mmHg 43%
    07:00 +29°C° 0 mm 2 mps 737 mmHg 42%
    08:00 +31°C° 0 mm 2 mps 737 mmHg 41%
    09:00 +35°C° 0 mm 2 mps 738 mmHg 40%
    10:00 +39°C° 0 mm 2 mps 737 mmHg 32%
    11:00 +42°C° 0 mm 1 mps 737 mmHg 24%
    12:00 +42°C° 0 mm 0 mps 736 mmHg 16%
    13:00 +42°C° 0 mm 0 mps 736 mmHg 15%
    14:00 +41°C° 0 mm 0 mps 735 mmHg 14%
    15:00 +41°C° 0 mm 0 mps 734 mmHg 13%
    16:00 +38°C° 0 mm 0 mps 734 mmHg 15%
    17:00 +35°C° 0 mm 0 mps 734 mmHg 18%
    18:00 +32°C° 0 mm 0 mps 734 mmHg 20%
    19:00 +31°C° 0 mm 0 mps 735 mmHg 22%
    20:00 +32°C° 0 mm 1 mps 735 mmHg 23%
    21:00 +31°C° 0 mm 1 mps 736 mmHg 25%
    22:00 +30°C° 0 mm 1 mps 736 mmHg 28%
    23:00 +30°C° 0 mm 1 mps 736 mmHg 30%

    Day after tomorrow, 24 October, Tuesday

    Time Temperature Precipitation Wind Pressure Humidity
    00:00 +29°C° 0 mm 1 mps 736 mmHg 33%
    01:00 +29°C° 0 mm 1 mps 736 mmHg 40%
    02:00 +28°C° 0 mm 2 mps 736 mmHg 48%
    03:00 +28°C° 0 mm 2 mps 735 mmHg 55%
    04:00 +27°C° 0 mm 2 mps 736 mmHg 62%
    05:00 +27°C° 0 mm 2 mps 736 mmHg 69%
    06:00 +26°C° 0 mm 2 mps 736 mmHg 76%
    07:00 +29°C° 0 mm 2 mps 737 mmHg 67%
    08:00 +31°C° 0 mm 3 mps 737 mmHg 58%
    09:00 +35°C° 0 mm 3 mps 738 mmHg 49%
    10:00 +38°C° 0 mm 2 mps 737 mmHg 39%
    11:00 +41°C° 0 mm 1 mps 736 mmHg 29%
    12:00 +44°C° 0 mm 1 mps 736 mmHg 19%
    13:00 +44°C° 0 mm 1 mps 735 mmHg 18%
    14:00 +41°C° 0 mm 0 mps 734 mmHg 16%
    15:00 +41°C° 0 mm 0 mps 733 mmHg 15%
    16:00 +38°C° 0 mm 0 mps 734 mmHg 17%
    17:00 +35°C° 0 mm 0 mps 734 mmHg 20%
    18:00 +32°C° 0 mm 0 mps 734 mmHg 22%
    19:00 +32°C° 0 mm 0 mps 735 mmHg 23%
    20:00 +33°C° 0 mm 1 mps 735 mmHg 24%
    21:00 +33°C° 0 mm 1 mps 736 mmHg 25%
    22:00 +32°C° 0 mm 1 mps 736 mmHg 26%
    23:00 +32°C° 0 mm 1 mps 736 mmHg 28%

    25 October, Wednesday

    Time Temperature Precipitation Wind Pressure Humidity
    00:00 +32°C° 0 mm 1 mps 736 mmHg 29%
    01:00 +31°C° 0 mm 1 mps 736 mmHg 31%
    02:00 +31°C° 0 mm 2 mps 735 mmHg 34%
    03:00 +30°C° 0 mm 2 mps 735 mmHg 36%
    04:00 +29°C° 0 mm 2 mps 735 mmHg 44%
    05:00 +29°C° 0 mm 2 mps 736 mmHg 52%
    06:00 +28°C° 0 mm 2 mps 736 mmHg 60%
    07:00 +30°C° 0 mm 2 mps 737 mmHg 56%
    08:00 +32°C° 0 mm 2 mps 737 mmHg 52%
    09:00 +35°C° 0 mm 3 mps 738 mmHg 48%
    10:00 +38°C° 0 mm 2 mps 737 mmHg 40%
    11:00 +41°C° 0 mm 2 mps 736 mmHg 31%
    12:00 +44°C° 0 mm 1 mps 736 mmHg 22%
    13:00 +42°C° 0 mm 1 mps 735 mmHg 23%
    14:00 +41°C° 0 mm 1 mps 734 mmHg 23%
    15:00 +40°C° 0 mm 1 mps 734 mmHg 24%
    16:00 +39°C° 0 mm 1 mps 734 mmHg 26%
    17:00 +36°C° 0 mm 1 mps 734 mmHg 28%
    18:00 +35°C° 0 mm 1 mps 735 mmHg 31%
    19:00 +34°C° 0 mm 1 mps 735 mmHg 33%
    20:00 +33°C° 0 mm 1 mps 736 mmHg 35%
    21:00 +32°C° 0 mm 1 mps 736 mmHg 37%
    22:00 +32°C° 0 mm 1 mps 736 mmHg 39%
    23:00 +31°C° 0 mm 1 mps 736 mmHg 42%

    26 October, Thursday

    Time Temperature Precipitation Wind Pressure Humidity
    00:00 +31°C° 0 mm 1 mps 736 mmHg 44%
    01:00 +30°C° 0 mm 1 mps 736 mmHg 47%
    02:00 +30°C° 0 mm 2 mps 736 mmHg 51%
    03:00 +29°C° 0 mm 2 mps 736 mmHg 54%
    04:00 +29°C° 0 mm 2 mps 736 mmHg 60%
    05:00 +28°C° 0 mm 2 mps 737 mmHg 65%
    06:00 +28°C° 0 mm 1 mps 738 mmHg 70%
    07:00 +30°C° 0 mm 1 mps 738 mmHg 62%
    08:00 +34°C° 0 mm 2 mps 738 mmHg 55%
    09:00 +36°C° 0 mm 2 mps 739 mmHg 47%
    10:00 +38°C° 0 mm 2 mps 738 mmHg 39%
    11:00 +40°C° 0 mm 2 mps 737 mmHg 30%
    12:00 +43°C° 0 mm 2 mps 736 mmHg 22%
    13:00 +43°C° 0 mm 2 mps 736 mmHg 20%
    14:00 +42°C° 0 mm 2 mps 735 mmHg 18%
    15:00 +43°C° 0 mm 3 mps 734 mmHg 17%
    16:00 +40°C° 0 mm 2 mps 735 mmHg 19%
    17:00 +38°C° 0 mm 2 mps 735 mmHg 20%
    18:00 +36°C° 0 mm 2 mps 735 mmHg 22%
    19:00 +34°C° 0 mm 1 mps 735 mmHg 23%
    20:00 +33°C° 0 mm 1 mps 736 mmHg 23%
    21:00 +32°C° 0 mm 1 mps 736 mmHg 24%
    22:00 +31°C° 0 mm 1 mps 736 mmHg 25%
    23:00 +30°C° 0 mm 1 mps 736 mmHg 26%

    27 October, Friday

    Time Temperature Precipitation Wind Pressure Humidity
    00:00 +29°C° 0 mm 1 mps 736 mmHg 28%
    01:00 +29°C° 0 mm 1 mps 736 mmHg 29%
    02:00 +28°C° 0 mm 1 mps 736 mmHg 29%
    03:00 +27°C° 0 mm 1 mps 736 mmHg 30%
    04:00 +27°C° 0 mm 1 mps 736 mmHg 33%
    05:00 +26°C° 0 mm 1 mps 737 mmHg 36%
    06:00 +26°C° 0 mm 1 mps 737 mmHg 39%
    07:00 +29°C° 0 mm 1 mps 737 mmHg 33%
    08:00 +32°C° 0 mm 2 mps 738 mmHg 27%
    09:00 +37°C° 0 mm 3 mps 738 mmHg 22%
    10:00 +38°C° 0 mm 3 mps 737 mmHg 18%
    11:00 +40°C° 0 mm 3 mps 736 mmHg 14%
    12:00 +43°C° 0 mm 4 mps 736 mmHg 10%
    13:00 +43°C° 0 mm 4 mps 735 mmHg 9%
    14:00 +43°C° 0 mm 4 mps 734 mmHg 9%
    15:00 +43°C° 0 mm 3 mps 734 mmHg 9%
    16:00 +39°C° 0 mm 3 mps 734 mmHg 11%
    17:00 +37°C° 0 mm 2 mps 734 mmHg 13%
    18:00 +33°C° 0 mm 1 mps 734 mmHg 14%
    19:00 +32°C° 0 mm 1 mps 735 mmHg 15%
    20:00 +31°C° 0 mm 1 mps 735 mmHg 16%
    21:00 +30°C° 0 mm 1 mps 736 mmHg 17%
    22:00 +29°C° 0 mm 1 mps 736 mmHg 18%
    23:00 +28°C° 0 mm 1 mps 735 mmHg 19%
    Show more